{"data":{"norad_id":65939,"intl_designator":"2025-226B","name":"2025-226B","alt_names":[],"object_type":"PAYLOAD","status":"ACTIVE","operator":null,"country":"PRC","launch_date":"2025-10-11","launch_site_code":"YSLA","launch_vehicle":null,"mission":null,"orbit_class":"UNKNOWN","rcs_meters":null,"size_class":null,"mass_kg":null,"dimensions":null,"purposes":[],"wikipedia_slug":null,"has_3d_model":false,"image_url":null,"decayed_at":null,"tle_current":{"epoch":"2026-09-20T10:44:04.529760Z","epoch_age_seconds":148247,"freshness":"FRESH","line1":"1 65939U 25226B   26263.44727465  .00002371  00000+0  15221-3 0  9993","line2":"2 65939  97.6329 341.6040 0012287 174.8714 185.2642 15.09391601 51942","mean_motion":15.09391601,"eccentricity":0.0012287,"inclination_deg":97.6329,"raan_deg":341.604,"arg_perigee_deg":174.8714,"mean_anomaly_deg":185.2642,"bstar":0.00015221,"rev_number":5194,"period_min":95.402677412937,"perigee_km":529.55995021036,"apogee_km":546.55580750567,"semimajor_km":6916.194878858,"source":"CELESTRAK","updated_at":"2026-09-21T09:00:15.652490Z"}}}